AirNav   ProFlight Series 2 Aviation Headset
 
 967 users online  

SN34 Rucker Airport
Clearwater, Kansas, USA

GOING TO CLEARWATER?


FAA INFORMATION EFFECTIVE 18 JUNE 2020

Location

FAA Identifier: SN34
Lat/Long: 37-34-30.0580N 097-29-31.1690W
37-34.500967N 097-29.519483W
37.5750161,-97.4919914
(estimated)
Elevation: 1300 ft. / 396 m (estimated)
Variation: 07E (1985)
From city: 4 miles N of CLEARWATER, KS
Time zone: UTC -5 (UTC -6 during Standard Time)
Zip code: 67026

Airport Operations

Airport use: Private use. Permission required prior to landing
Activation date: 04/1971
Control tower: no
ARTCC: KANSAS CITY CENTER
FSS: WICHITA FLIGHT SERVICE STATION
Attendance: UNATNDD
Wind indicator: no
Segmented circle: no

Airport Communications

WX ASOS at ICT (5 nm NE): PHONE 316-945-8022
WX AWOS-3PT at BEC (15 nm NE): 119.45 (316-515-7116)
WX AWOS-3 at EGT (16 nm S): 118.875 (620-326-2470)
WX ASOS at AAO (17 nm NE): 134.025 (316-636-2541)

Nearby radio navigation aids

VOR radial/distance  VOR name  Freq  Var
ICTr150/11.1WICHITA VORTAC113.8007E
HUTr136/32.9HUTCHINSON VOR/DME116.8004E

 
NDB name  Hdg/Dist  Freq  Var  ID
PICHE260/1.733204EIC .. -.-.
NEWTON193/31.128106EEWK . .-- -.-

Airport Services

Runway Information

Runway 17/35

Dimensions: 2600 x 100 ft. / 792 x 30 m
Surface: turf
RUNWAY 17  RUNWAY 35
Traffic pattern: rightleft

Airport Ownership and Management from official FAA records

Ownership: Privately-owned
Owner: RUCKER FIELD ASSOCIATION
13149 WEST 63RD ST SOUTH
CLEARWATER, KS 67026
Phone (620) 545-7070
Manager: AARON TOBIAS
13149 WEST 63RD ST SOUTH
CLEARWATER, KS 67026
Phone (620) 545-7070

Airport Operational Statistics

Aircraft based on the field: 6
Single engine airplanes: 6
    

Additional Remarks

RY 35 272 FT RADIO TWR 1100 FT W OF NORTH END OF RY.
CTC ICT TWR FOR ADZYS, DUE TO CLOSE PROXIMITY TO CLASS C SFC ASP.
RWY 17- RP ONLY
FOR CD CTC WICHITA APCH AT 316-350-1520.

Instrument Procedures

There are no published instrument procedures at SN34.

Some nearby airports with instrument procedures:

KICT - Wichita Dwight D Eisenhower National Airport (5 nm NE)
KIAB - Mc Connell Air Force Base (11 nm E)
KCEA - Cessna Aircraft Field Airport (12 nm E)
KBEC - Beech Factory Airport (15 nm NE)
KEGT - Wellington Municipal Airport (16 nm S)
KAAO - Colonel James Jabara Airport (17 nm NE)
 
Loc | Ops | Rwys | IFR | FBO | Links
Com | Nav | Svcs | Stats | Notes
Area around SN34 (Rucker Airport)
 
Road maps at: MapQuest Bing Google
 
Aerial photo
No photo
 
Sectional chart

 
Airport distance calculator
Flying to Rucker Airport? Find the distance to fly.

From to SN34

Sunrise and sunset
Times for 12-Jul-2020
 Local
(UTC-5)
 Zulu
(UTC)
Morning civil twilight05:5010:50
Sunrise06:2011:20
Sunset20:5101:51
Evening civil twilight21:2202:22

Current date and time
Zulu (UTC)  12-Jul-2020 15:15:18
Local (UTC-5)  12-Jul-2020 10:15:18
 
METAR
KICT 
5nm NE 
121453Z 06006KT 10SM FEW160 SCT220 28/15 A3004 RMK AO2 SLP157 T02780150 51009 $
KIAB 
11nm E 
121456Z AUTO 08007KT 10SM CLR 27/13 A3005 RMK AO2 SLP163 T02690132 52010 $
KBEC 
15nm NE 
121455Z AUTO 06009KT 10SM CLR 26/15 A3005 RMK AO2 T02610151
KAAO 
17nm NE 
121454Z AUTO 06007KT 10SM CLR 27/16 A3004 RMK AO2 SLP158 T02720161 51007
TAF
KICT 
5nm NE 
121120Z 1212/1312 05006KT P6SM SKC FM122000 07008KT P6SM SCT080
KIAB 
11nm E 
121203Z 1212/1318 VRB06KT 9999 FEW250 QNH3002INS BECMG 1214/1215 07009KT 9999 SKC QNH2993INS BECMG 1302/1303 VRB06KT 9999 SKC QNH2994INS BECMG 1311/1312 VRB06KT 9999 BKN070 OVC090 510042 QNH2995INS BECMG 1314/1315 14012KT 9999 FEW070 SCT120 QNH2991INS TX33/1222Z TN20/1312Z LAST NO AMDS AFT 1212 NEXT 1310
NOTAMs
Click for the latest NOTAMs
NOTAMs are issued by the DoD/FAA and will open in a separate window not controlled by AirNav.

 

 
 

Would you like to see your business listed on this page?

 If your business provides an interesting product or service to pilots, flight crews, aircraft, or users of the Rucker Airport, you should consider listing it here.  To start the listing process, click on the button below
 
Add a business
 

Other Pages about Rucker Airport

Update a link
 
Copyright © AirNav, LLC. All rights reserved. Privacy Policy  Contact